Time,TemperatureF,DewpointF,PressureIn,WindDirection,WindDirectionDegrees,WindSpeedMPH,WindSpeedGustMPH,Humidity,HourlyPrecipIn,Conditions,Clouds,dailyrainin,SoftwareType,DateUTC
2013-02-18 00:01:00,23.9,0.2,29.67,WSW,249,18.4,18.4,35,0.00,CLR,,0.00,WeatherDisplay:10.37,2013-02-18 07:01:00,
2013-02-18 00:06:00,23.8,0.1,29.67,WSW,256,8.1,8.1,35,0.00,CLR,,0.00,WeatherDisplay:10.37,2013-02-18 07:06:00,
2013-02-18 00:11:00,23.9,-1.7,29.67,WSW,241,5.8,5.8,32,0.00,CLR,,0.00,WeatherDisplay:10.37,2013-02-18 07:11:00,
2013-02-18 00:16:00,23.8,0.1,29.67,WSW,240,6.0,6.0,35,0.00,CLR,,0.00,WeatherDisplay:10.37,2013-02-18 07:16:00,
2013-02-18 00:21:00,23.5,-1.4,29.67,WSW,237,17.3,17.3,33,0.00,CLR,,0.00,WeatherDisplay:10.37,2013-02-18 07:21:00,
2013-02-18 00:26:00,23.5,-2.1,29.67,SW,221,17.3,17.3,32,0.00,CLR,,0.00,WeatherDisplay:10.37,2013-02-18 07:26:00,
2013-02-18 00:31:00,23.5,-1.4,29.68,SSW,203,18.4,18.4,33,0.00,CLR,,0.00,WeatherDisplay:10.37,2013-02-18 07:31:00,
2013-02-18 00:36:00,23.5,-0.8,29.68,SW,225,17.3,17.3,34,0.00,CLR,,0.00,WeatherDisplay:10.37,2013-02-18 07:36:00,
2013-02-18 00:41:00,23.3,-0.4,29.68,WSW,249,19.6,19.6,35,0.00,CLR,,0.00,WeatherDisplay:10.37,2013-02-18 07:41:00,
2013-02-18 00:46:00,23.2,-0.5,29.70,SW,235,10.4,10.4,35,0.00,CLR,,0.00,WeatherDisplay:10.37,2013-02-18 07:46:00,
2013-02-18 00:51:00,22.9,-0.7,29.70,WNW,285,11.5,11.5,35,0.00,CLR,,0.00,WeatherDisplay:10.37,2013-02-18 07:51:00,
2013-02-18 00:56:00,23.0,-0.6,29.70,West,269,7.0,7.0,35,0.00,CLR,,0.00,WeatherDisplay:10.37,2013-02-18 07:56:00,
2013-02-18 01:01:00,23.2,-1.7,29.72,West,271,16.1,16.1,33,0.00,CLR,,0.00,WeatherDisplay:10.37,2013-02-18 08:01:00,
2013-02-18 01:06:00,23.5,-0.8,29.72,WSW,242,19.6,19.6,34,0.00,CLR,,0.00,WeatherDisplay:10.37,2013-02-18 08:06:00,
2013-02-18 01:11:00,23.5,-0.2,29.72,WSW,241,16.1,16.1,35,0.00,CLR,,0.00,WeatherDisplay:10.37,2013-02-18 08:11:00,
2013-02-18 01:16:00,23.3,-0.4,29.70,SW,231,16.1,16.1,35,0.00,CLR,,0.00,WeatherDisplay:10.37,2013-02-18 08:16:00,
2013-02-18 01:21:00,23.3,0.2,29.70,WSW,240,16.1,16.1,36,0.00,CLR,,0.00,WeatherDisplay:10.37,2013-02-18 08:21:00,
2013-02-18 01:26:00,23.3,0.2,29.70,SW,227,13.8,13.8,36,0.00,CLR,,0.00,WeatherDisplay:10.37,2013-02-18 08:26:00,
2013-02-18 01:31:00,23.2,0.1,29.71,WSW,252,8.1,8.1,36,0.00,CLR,,0.00,WeatherDisplay:10.37,2013-02-18 08:31:00,
2013-02-18 01:36:00,23.0,0.6,29.71,West,276,6.9,6.9,37,0.00,CLR,,0.00,WeatherDisplay:10.37,2013-02-18 08:36:00,
2013-02-18 01:41:00,22.9,0.5,29.71,WSW,255,6.0,6.0,37,0.00,CLR,,0.00,WeatherDisplay:10.37,2013-02-18 08:41:00,
2013-02-18 01:46:00,22.7,1.4,29.72,WNW,283,11.5,11.5,39,0.00,CLR,,0.00,WeatherDisplay:10.37,2013-02-18 08:46:00,
2013-02-18 01:51:00,22.7,0.9,29.72,West,259,10.0,10.0,38,0.00,CLR,,0.00,WeatherDisplay:10.37,2013-02-18 08:51:00,
2013-02-18 01:56:00,22.9,0.5,29.72,West,276,17.0,17.0,37,0.00,CLR,,0.00,WeatherDisplay:10.37,2013-02-18 08:56:00,
2013-02-18 02:01:00,22.7,0.3,29.73,WSW,248,16.1,16.1,37,0.00,CLR,,0.00,WeatherDisplay:10.37,2013-02-18 09:01:00,
2013-02-18 02:06:00,22.7,0.3,29.73,West,265,11.5,11.5,37,0.00,CLR,,0.00,WeatherDisplay:10.37,2013-02-18 09:06:00,
2013-02-18 02:11:00,22.4,0.0,29.73,WSW,238,12.7,12.7,37,0.00,CLR,,0.00,WeatherDisplay:10.37,2013-02-18 09:11:00,
2013-02-18 02:16:00,22.4,0.0,29.74,WSW,251,16.1,16.1,37,0.00,CLR,,0.00,WeatherDisplay:10.37,2013-02-18 09:16:00,
2013-02-18 02:21:00,22.2,-0.2,29.74,SW,227,16.1,16.1,37,0.00,CLR,,0.00,WeatherDisplay:10.37,2013-02-18 09:21:00,
2013-02-18 02:26:00,21.9,0.1,29.74,SW,231,5.8,5.8,38,0.00,CLR,,0.00,WeatherDisplay:10.37,2013-02-18 09:26:00,
2013-02-18 02:31:00,21.8,0.0,29.75,WSW,255,18.4,18.4,38,0.00,CLR,,0.00,WeatherDisplay:10.37,2013-02-18 09:31:00,
2013-02-18 02:36:00,21.8,0.0,29.75,SW,223,11.5,11.5,38,0.00,CLR,,0.00,WeatherDisplay:10.37,2013-02-18 09:36:00,
2013-02-18 02:41:00,21.4,-0.3,29.75,WNW,296,4.6,4.6,38,0.00,CLR,,0.00,WeatherDisplay:10.37,2013-02-18 09:41:00,
2013-02-18 02:46:00,21.3,-0.4,29.77,WSW,244,4.6,4.6,38,0.00,CLR,,0.00,WeatherDisplay:10.37,2013-02-18 09:46:00,
2013-02-18 02:51:00,21.1,0.0,29.77,West,269,7.0,7.0,39,0.00,CLR,,0.00,WeatherDisplay:10.37,2013-02-18 09:51:00,
2013-02-18 02:56:00,21.0,-0.1,29.77,West,266,8.1,8.1,39,0.00,CLR,,0.00,WeatherDisplay:10.37,2013-02-18 09:56:00,
2013-02-18 03:01:00,20.8,-0.3,29.77,West,261,6.0,6.0,39,0.00,CLR,,0.00,WeatherDisplay:10.37,2013-02-18 10:01:00,
2013-02-18 03:06:00,20.6,0.1,29.77,WSW,242,4.6,4.6,40,0.00,CLR,,0.00,WeatherDisplay:10.37,2013-02-18 10:06:00,
2013-02-18 03:11:00,20.5,0.0,29.77,West,269,0.0,0.0,40,0.00,CLR,,0.00,WeatherDisplay:10.37,2013-02-18 10:11:00,
2013-02-18 03:16:00,20.2,0.2,29.80,West,268,2.3,2.3,41,0.00,CLR,,0.00,WeatherDisplay:10.37,2013-02-18 10:16:00,
2013-02-18 03:21:00,19.9,-0.1,29.80,NNW,344,3.5,3.5,41,0.00,CLR,,0.00,WeatherDisplay:10.37,2013-02-18 10:21:00,
2013-02-18 03:26:00,19.2,-0.7,29.80,NNW,344,1.2,1.2,41,0.00,CLR,,0.00,WeatherDisplay:10.37,2013-02-18 10:26:00,
2013-02-18 03:31:00,18.8,0.5,29.82,East,90,2.3,2.3,44,0.00,CLR,,0.00,WeatherDisplay:10.37,2013-02-18 10:31:00,
2013-02-18 03:36:00,19.1,0.2,29.82,South,170,6.0,6.0,43,0.00,CLR,,0.00,WeatherDisplay:10.37,2013-02-18 10:36:00,
2013-02-18 03:41:00,19.5,0.1,29.82,West,272,3.5,3.5,42,0.00,CLR,,0.00,WeatherDisplay:10.37,2013-02-18 10:41:00,
2013-02-18 03:46:00,19.7,0.3,29.82,WSW,244,5.8,5.8,42,0.00,CLR,,0.00,WeatherDisplay:10.37,2013-02-18 10:46:00,
2013-02-18 03:51:00,19.2,0.3,29.82,WSW,241,6.0,6.0,43,0.00,CLR,,0.00,WeatherDisplay:10.37,2013-02-18 10:51:00,
2013-02-18 03:56:00,19.4,1.5,29.82,WSW,251,7.0,7.0,45,0.00,CLR,,0.00,WeatherDisplay:10.37,2013-02-18 10:56:00,
2013-02-18 04:01:00,19.4,1.5,29.82,West,275,4.6,4.6,45,0.00,CLR,,0.00,WeatherDisplay:10.37,2013-02-18 11:01:00,
2013-02-18 04:06:00,19.1,2.1,29.82,West,262,7.0,7.0,47,0.00,CLR,,0.00,WeatherDisplay:10.37,2013-02-18 11:06:00,
2013-02-18 04:11:00,19.1,2.1,29.82,West,264,5.8,5.8,47,0.00,CLR,,0.00,WeatherDisplay:10.37,2013-02-18 11:11:00,
2013-02-18 04:16:00,18.9,2.0,29.86,West,264,2.3,2.3,47,0.00,CLR,,0.00,WeatherDisplay:10.37,2013-02-18 11:16:00,
2013-02-18 04:21:00,18.8,1.9,29.86,West,262,2.3,2.3,47,0.00,CLR,,0.00,WeatherDisplay:10.37,2013-02-18 11:21:00,
2013-02-18 04:26:00,18.6,1.7,29.86,WSW,258,4.6,4.6,47,0.00,CLR,,0.00,WeatherDisplay:10.37,2013-02-18 11:26:00,
2013-02-18 04:31:00,18.4,1.0,29.86,West,264,5.0,5.0,46,0.00,CLR,,0.00,WeatherDisplay:10.37,2013-02-18 11:31:00,
2013-02-18 04:36:00,18.4,1.0,29.86,West,261,6.9,6.9,46,0.00,CLR,,0.00,WeatherDisplay:10.37,2013-02-18 11:36:00,
2013-02-18 04:41:00,18.9,1.0,29.86,WSW,254,10.4,10.4,45,0.00,CLR,,0.00,WeatherDisplay:10.37,2013-02-18 11:41:00,
2013-02-18 04:46:00,18.9,0.5,29.87,West,261,6.9,6.9,44,0.00,CLR,,0.00,WeatherDisplay:10.37,2013-02-18 11:46:00,
2013-02-18 04:51:00,18.8,0.0,29.87,West,262,6.9,6.9,43,0.00,CLR,,0.00,WeatherDisplay:10.37,2013-02-18 11:51:00,
2013-02-18 04:56:00,18.6,-0.2,29.87,West,273,5.8,5.8,43,0.00,CLR,,0.00,WeatherDisplay:10.37,2013-02-18 11:56:00,
2013-02-18 05:01:00,18.8,0.0,29.89,West,264,6.9,6.9,43,0.00,CLR,,0.00,WeatherDisplay:10.37,2013-02-18 12:01:00,
2013-02-18 05:06:00,19.1,-0.3,29.89,WSW,240,5.8,5.8,42,0.00,CLR,,0.00,WeatherDisplay:10.37,2013-02-18 12:06:00,
2013-02-18 05:11:00,19.2,-0.7,29.89,West,259,10.4,10.4,41,0.00,CLR,,0.00,WeatherDisplay:10.37,2013-02-18 12:11:00,
2013-02-18 05:16:00,19.2,-0.7,29.91,NNW,340,5.8,5.8,41,0.00,CLR,,0.00,WeatherDisplay:10.37,2013-02-18 12:16:00,
2013-02-18 05:21:00,19.1,-0.8,29.91,NNW,333,11.5,11.5,41,0.00,CLR,,0.00,WeatherDisplay:10.37,2013-02-18 12:21:00,
2013-02-18 05:26:00,18.8,-1.1,29.91,NNW,338,2.3,2.3,41,0.00,CLR,,0.00,WeatherDisplay:10.37,2013-02-18 12:26:00,
2013-02-18 05:31:00,18.3,-1.0,29.93,NNW,338,2.3,2.3,42,0.00,CLR,,0.00,WeatherDisplay:10.37,2013-02-18 12:31:00,
2013-02-18 05:36:00,18.0,-1.3,29.93,NNW,341,7.0,7.0,42,0.00,CLR,,0.00,WeatherDisplay:10.37,2013-02-18 12:36:00,
2013-02-18 05:41:00,18.0,-1.3,29.93,NNW,341,6.9,6.9,42,0.00,CLR,,0.00,WeatherDisplay:10.37,2013-02-18 12:41:00,
2013-02-18 05:46:00,17.8,-1.5,29.94,NW,310,3.5,3.5,42,0.00,CLR,,0.00,WeatherDisplay:10.37,2013-02-18 12:46:00,
2013-02-18 05:51:00,18.0,-1.3,29.94,West,276,8.0,8.0,42,0.00,CLR,,0.00,WeatherDisplay:10.37,2013-02-18 12:51:00,
2013-02-18 05:56:00,18.1,-0.7,29.94,NNW,347,8.0,8.0,43,0.00,CLR,,0.00,WeatherDisplay:10.37,2013-02-18 12:56:00,
2013-02-18 06:01:00,18.3,0.0,29.94,WNW,293,7.0,7.0,44,0.00,CLR,,0.00,WeatherDisplay:10.37,2013-02-18 13:01:00,
2013-02-18 06:06:00,18.3,0.5,29.94,NW,316,6.9,6.9,45,0.00,CLR,,0.00,WeatherDisplay:10.37,2013-02-18 13:06:00,
2013-02-18 06:11:00,18.3,0.5,29.94,West,266,12.7,12.7,45,0.00,CLR,,0.00,WeatherDisplay:10.37,2013-02-18 13:11:00,
2013-02-18 06:16:00,18.8,0.5,29.95,WSW,258,11.5,11.5,44,0.00,CLR,,0.00,WeatherDisplay:10.37,2013-02-18 13:16:00,
2013-02-18 06:21:00,19.2,-0.2,29.95,WSW,258,11.5,11.5,42,0.00,CLR,,0.00,WeatherDisplay:10.37,2013-02-18 13:21:00,
2013-02-18 06:26:00,19.2,-0.2,29.95,WSW,251,8.1,8.1,42,0.00,CLR,,0.00,WeatherDisplay:10.37,2013-02-18 13:26:00,
2013-02-18 06:31:00,18.9,0.1,29.95,West,264,4.6,4.6,43,0.00,CLR,,0.00,WeatherDisplay:10.37,2013-02-18 13:31:00,
2013-02-18 06:36:00,18.8,0.5,29.95,West,276,6.9,6.9,44,0.00,CLR,,0.00,WeatherDisplay:10.37,2013-02-18 13:36:00,
2013-02-18 06:41:00,18.4,0.6,29.95,West,268,5.8,5.8,45,0.00,CLR,,0.00,WeatherDisplay:10.37,2013-02-18 13:41:00,
2013-02-18 06:46:00,18.4,0.6,29.97,West,278,12.7,12.7,45,0.00,CLR,,0.00,WeatherDisplay:10.37,2013-02-18 13:46:00,
2013-02-18 06:51:00,18.4,0.6,29.97,SW,232,8.1,8.1,45,0.00,CLR,,0.00,WeatherDisplay:10.37,2013-02-18 13:51:00,
2013-02-18 06:56:00,18.6,0.7,29.97,West,276,10.0,10.0,45,0.00,CLR,,0.00,WeatherDisplay:10.37,2013-02-18 13:56:00,
2013-02-18 07:01:00,18.6,0.3,29.96,West,261,10.4,10.4,44,0.00,CLR,,0.00,WeatherDisplay:10.37,2013-02-18 14:01:00,
2013-02-18 07:06:00,18.6,1.2,29.96,WSW,238,18.4,18.4,46,0.00,CLR,,0.00,WeatherDisplay:10.37,2013-02-18 14:06:00,
2013-02-18 07:11:00,18.4,1.0,29.96,SSW,199,24.2,24.2,46,0.00,CLR,,0.00,WeatherDisplay:10.37,2013-02-18 14:11:00,
2013-02-18 07:16:00,18.6,1.7,30.01,West,268,17.3,17.3,47,0.00,CLR,,0.00,WeatherDisplay:10.37,2013-02-18 14:16:00,
2013-02-18 07:21:00,18.9,2.0,30.01,West,259,19.6,19.6,47,0.00,CLR,,0.00,WeatherDisplay:10.37,2013-02-18 14:21:00,
2013-02-18 07:26:00,19.2,1.3,30.01,SW,224,18.4,18.4,45,0.00,CLR,,0.00,WeatherDisplay:10.37,2013-02-18 14:26:00,
2013-02-18 07:31:00,19.5,0.1,30.00,SW,227,6.9,8.0,42,0.00,CLR,,0.00,WeatherDisplay:10.37,2013-02-18 14:31:00,
2013-02-18 07:36:00,19.9,-0.1,30.00,WSW,254,5.8,5.8,41,0.00,CLR,,0.00,WeatherDisplay:10.37,2013-02-18 14:36:00,
2013-02-18 07:41:00,20.3,-0.2,30.00,NNW,344,13.8,13.8,40,0.00,CLR,,0.00,WeatherDisplay:10.37,2013-02-18 14:41:00,
2013-02-18 07:46:00,20.6,-1.6,29.98,West,269,22.0,22.0,37,0.00,CLR,,0.00,WeatherDisplay:10.37,2013-02-18 14:46:00,
2013-02-18 07:51:00,21.0,-1.8,29.98,WSW,255,21.9,21.9,36,0.00,CLR,,0.00,WeatherDisplay:10.37,2013-02-18 14:51:00,
2013-02-18 07:56:00,21.3,-2.2,29.98,West,276,21.0,21.0,35,0.00,CLR,,0.00,WeatherDisplay:10.37,2013-02-18 14:56:00,
2013-02-18 08:01:00,21.6,-3.1,30.00,West,261,18.4,18.4,33,0.00,CLR,,0.00,WeatherDisplay:10.37,2013-02-18 15:01:00,
2013-02-18 08:06:00,22.1,-3.3,30.00,West,269,16.1,16.1,32,0.00,CLR,,0.00,WeatherDisplay:10.37,2013-02-18 15:06:00,
2013-02-18 08:11:00,22.1,-3.3,30.00,WSW,247,18.4,18.4,32,0.00,CLR,,0.00,WeatherDisplay:10.37,2013-02-18 15:11:00,
2013-02-18 08:16:00,22.4,-3.7,30.02,WSW,241,16.1,16.1,31,0.00,CLR,,0.00,WeatherDisplay:10.37,2013-02-18 15:16:00,
2013-02-18 08:21:00,22.5,-3.6,30.02,West,273,13.0,13.0,31,0.00,CLR,,0.00,WeatherDisplay:10.37,2013-02-18 15:21:00,
2013-02-18 08:26:00,22.7,-3.5,30.02,WSW,241,16.1,16.1,31,0.00,CLR,,0.00,WeatherDisplay:10.37,2013-02-18 15:26:00,
2013-02-18 08:31:00,22.7,-3.5,30.01,SW,225,19.6,19.6,31,0.00,CLR,,0.00,WeatherDisplay:10.37,2013-02-18 15:31:00,
2013-02-18 08:36:00,22.7,-4.1,30.01,SW,235,19.6,19.6,30,0.00,CLR,,0.00,WeatherDisplay:10.37,2013-02-18 15:36:00,
2013-02-18 08:41:00,23.0,-3.9,30.01,West,265,18.0,18.0,30,0.00,CLR,,0.00,WeatherDisplay:10.37,2013-02-18 15:41:00,
2013-02-18 08:46:00,23.5,-3.4,30.01,SW,234,7.0,7.0,30,0.00,CLR,,0.00,WeatherDisplay:10.37,2013-02-18 15:46:00,
2013-02-18 08:51:00,23.8,-4.6,30.01,West,259,16.1,16.1,28,0.00,CLR,,0.00,WeatherDisplay:10.37,2013-02-18 15:51:00,
2013-02-18 08:56:00,23.6,-4.1,30.01,West,276,20.7,20.7,29,0.00,CLR,,0.00,WeatherDisplay:10.37,2013-02-18 15:56:00,
2013-02-18 09:01:00,23.8,-3.9,30.02,WNW,289,11.5,11.5,29,0.00,CLR,,0.00,WeatherDisplay:10.37,2013-02-18 16:01:00,
2013-02-18 09:07:00,23.9,-4.5,30.02,WSW,242,26.5,26.5,28,0.00,CLR,,0.00,WeatherDisplay:10.37,2013-02-18 16:07:00,
2013-02-18 09:12:00,24.1,-3.6,30.02,NW,323,18.4,18.4,29,0.00,CLR,,0.00,WeatherDisplay:10.37,2013-02-18 16:12:00,
2013-02-18 09:17:00,24.7,-2.4,30.03,WSW,249,11.5,11.5,30,0.00,CLR,,0.00,WeatherDisplay:10.37,2013-02-18 16:17:00,
2013-02-18 09:22:00,24.7,-1.7,30.03,West,265,19.6,19.6,31,0.00,CLR,,0.00,WeatherDisplay:10.37,2013-02-18 16:22:00,
2013-02-18 09:27:00,24.1,-1.6,30.03,SW,234,16.1,16.1,32,0.00,CLR,,0.00,WeatherDisplay:10.37,2013-02-18 16:27:00,
2013-02-18 09:32:00,23.9,-1.1,30.04,West,273,19.6,19.6,33,0.00,CLR,,0.00,WeatherDisplay:10.37,2013-02-18 16:32:00,
2013-02-18 09:37:00,24.1,-0.3,30.04,WNW,288,19.6,19.6,34,0.00,CLR,,0.00,WeatherDisplay:10.37,2013-02-18 16:37:00,
2013-02-18 09:42:00,24.4,-0.6,30.04,WNW,283,11.5,11.5,33,0.00,CLR,,0.00,WeatherDisplay:10.37,2013-02-18 16:42:00,
2013-02-18 09:47:00,25.4,-1.1,30.05,WNW,289,17.3,17.3,31,0.00,CLR,,0.00,WeatherDisplay:10.37,2013-02-18 16:47:00,
2013-02-18 09:52:00,25.8,-2.9,30.05,WSW,242,16.1,16.1,28,0.00,CLR,,0.00,WeatherDisplay:10.37,2013-02-18 16:52:00,
2013-02-18 09:57:00,25.1,-2.8,30.05,West,272,18.4,18.4,29,0.00,CLR,,0.00,WeatherDisplay:10.37,2013-02-18 16:57:00,
2013-02-18 10:02:00,25.7,-3.0,30.04,SSW,208,12.7,12.7,28,0.00,CLR,,0.00,WeatherDisplay:10.37,2013-02-18 17:02:00,
2013-02-18 10:07:00,26.3,-3.2,30.04,WSW,240,10.4,10.4,27,0.00,CLR,,0.00,WeatherDisplay:10.37,2013-02-18 17:07:00,
2013-02-18 10:12:00,26.1,-4.2,30.04,WSW,244,12.0,12.0,26,0.00,CLR,,0.00,WeatherDisplay:10.37,2013-02-18 17:12:00,
2013-02-18 10:17:00,26.9,-4.3,30.04,WSW,242,17.0,17.0,25,0.00,CLR,,0.00,WeatherDisplay:10.37,2013-02-18 17:17:00,
2013-02-18 10:22:00,26.7,-4.5,30.04,WSW,249,17.3,17.3,25,0.00,CLR,,0.00,WeatherDisplay:10.37,2013-02-18 17:22:00,
2013-02-18 10:27:00,26.4,-5.6,30.04,WNW,299,13.8,13.8,24,0.00,CLR,,0.00,WeatherDisplay:10.37,2013-02-18 17:27:00,
2013-02-18 10:32:00,27.0,-4.2,30.05,SSW,194,10.0,10.0,25,0.00,CLR,,0.00,WeatherDisplay:10.37,2013-02-18 17:32:00,
2013-02-18 10:37:00,26.0,-4.3,30.05,WSW,247,13.8,13.8,26,0.00,CLR,,0.00,WeatherDisplay:10.37,2013-02-18 17:37:00,
2013-02-18 10:42:00,25.7,-3.7,30.05,WNW,302,6.9,6.9,27,0.00,CLR,,0.00,WeatherDisplay:10.37,2013-02-18 17:42:00,
2013-02-18 10:48:00,25.7,-3.0,30.05,WSW,251,11.5,11.5,28,0.00,CLR,,0.00,WeatherDisplay:10.37,2013-02-18 17:48:00,
2013-02-18 10:53:00,25.4,-4.0,30.05,WNW,288,10.0,10.0,27,0.00,CLR,,0.00,WeatherDisplay:10.37,2013-02-18 17:53:00,
2013-02-18 10:58:00,25.4,-3.2,30.05,NW,307,19.6,19.6,28,0.00,CLR,,0.00,WeatherDisplay:10.37,2013-02-18 17:58:00,
2013-02-18 11:03:00,26.1,-4.2,30.05,West,264,11.5,11.5,26,0.00,CLR,,0.00,WeatherDisplay:10.37,2013-02-18 18:03:00,
2013-02-18 11:08:00,26.0,-4.3,30.05,SSW,211,10.4,10.4,26,0.00,CLR,,0.00,WeatherDisplay:10.37,2013-02-18 18:08:00,
2013-02-18 11:13:00,26.6,-3.7,30.05,North,2,24.2,24.2,26,0.00,CLR,,0.00,WeatherDisplay:10.37,2013-02-18 18:13:00,
2013-02-18 11:18:00,26.4,-5.6,30.05,WSW,251,26.5,26.5,24,0.00,CLR,,0.00,WeatherDisplay:10.37,2013-02-18 18:18:00,
2013-02-18 11:23:00,27.0,-5.1,30.05,WSW,244,18.4,18.4,24,0.00,CLR,,0.00,WeatherDisplay:10.37,2013-02-18 18:23:00,
2013-02-18 11:28:00,27.5,-4.6,30.05,West,262,10.4,10.4,24,0.00,CLR,,0.00,WeatherDisplay:10.37,2013-02-18 18:28:00,
2013-02-18 11:33:00,28.2,-4.0,30.03,WNW,289,6.9,6.9,24,0.00,CLR,,0.00,WeatherDisplay:10.37,2013-02-18 18:33:00,
2013-02-18 11:38:00,27.5,-4.6,30.03,WSW,247,16.1,16.1,24,0.00,CLR,,0.00,WeatherDisplay:10.37,2013-02-18 18:38:00,
2013-02-18 11:43:00,26.3,-3.2,30.03,SW,218,18.4,18.4,27,0.00,CLR,,0.00,WeatherDisplay:10.37,2013-02-18 18:43:00,
2013-02-18 11:48:00,26.6,-3.7,30.04,WNW,299,11.5,11.5,26,0.00,CLR,,0.00,WeatherDisplay:10.37,2013-02-18 18:48:00,
2013-02-18 11:53:00,27.5,-3.8,30.04,NW,326,14.0,14.0,25,0.00,CLR,,0.00,WeatherDisplay:10.37,2013-02-18 18:53:00,
2013-02-18 11:58:00,28.4,-3.9,30.04,SW,231,12.7,12.7,24,0.00,CLR,,0.00,WeatherDisplay:10.37,2013-02-18 18:58:00,
2013-02-18 12:03:00,29.0,-3.4,30.02,West,275,13.8,13.8,24,0.00,CLR,,0.00,WeatherDisplay:10.37,2013-02-18 19:03:00,
2013-02-18 12:08:00,28.8,-3.5,30.02,WNW,288,20.7,20.7,24,0.00,CLR,,0.00,WeatherDisplay:10.37,2013-02-18 19:08:00,
2013-02-18 12:13:00,28.7,-3.6,30.02,WNW,295,14.0,14.0,24,0.00,CLR,,0.00,WeatherDisplay:10.37,2013-02-18 19:13:00,
2013-02-18 12:19:00,27.5,-3.0,30.03,NW,321,16.1,16.1,26,0.00,CLR,,0.00,WeatherDisplay:10.37,2013-02-18 19:19:00,
2013-02-18 12:24:00,28.1,-2.4,30.03,NW,321,17.0,17.0,26,0.00,CLR,,0.00,WeatherDisplay:10.37,2013-02-18 19:24:00,
2013-02-18 12:29:00,29.0,-3.4,30.03,SW,227,8.1,8.1,24,0.00,CLR,,0.00,WeatherDisplay:10.37,2013-02-18 19:29:00,
2013-02-18 12:34:00,29.3,-4.9,30.02,WSW,249,26.5,26.5,22,0.00,CLR,,0.00,WeatherDisplay:10.37,2013-02-18 19:34:00,
2013-02-18 12:39:00,29.1,-5.1,30.02,West,276,21.9,21.9,22,0.00,CLR,,0.00,WeatherDisplay:10.37,2013-02-18 19:39:00,
2013-02-18 12:44:00,29.3,-4.9,30.02,West,262,18.4,18.4,22,0.00,CLR,,0.00,WeatherDisplay:10.37,2013-02-18 19:44:00,
2013-02-18 12:49:00,29.0,-5.2,30.02,NNW,333,22.0,22.0,22,0.00,CLR,,0.00,WeatherDisplay:10.37,2013-02-18 19:49:00,
2013-02-18 12:54:00,28.8,-5.3,30.02,NW,316,19.6,19.6,22,0.00,CLR,,0.00,WeatherDisplay:10.37,2013-02-18 19:54:00,
2013-02-18 12:59:00,29.3,-4.9,30.02,WNW,297,18.4,18.4,22,0.00,CLR,,0.00,WeatherDisplay:10.37,2013-02-18 19:59:00,
2013-02-18 13:04:00,28.8,-6.3,30.01,West,278,24.2,24.2,21,0.00,CLR,,0.00,WeatherDisplay:10.37,2013-02-18 20:04:00,
2013-02-18 13:09:00,29.0,-5.2,30.01,SW,214,12.0,12.0,22,0.00,CLR,,0.00,WeatherDisplay:10.37,2013-02-18 20:09:00,
2013-02-18 13:14:00,28.7,-5.4,30.01,West,275,12.7,12.7,22,0.00,CLR,,0.00,WeatherDisplay:10.37,2013-02-18 20:14:00,
2013-02-18 13:19:00,28.8,-5.3,30.01,West,269,19.6,19.6,22,0.00,CLR,,0.00,WeatherDisplay:10.37,2013-02-18 20:19:00,
2013-02-18 13:24:00,28.8,-5.3,30.01,WNW,299,18.4,18.4,22,0.00,CLR,,0.00,WeatherDisplay:10.37,2013-02-18 20:24:00,
2013-02-18 13:29:00,28.7,-5.4,30.01,North,351,18.4,18.4,22,0.00,CLR,,0.00,WeatherDisplay:10.37,2013-02-18 20:29:00,
2013-02-18 13:34:00,29.1,-5.1,30.01,WNW,297,16.1,16.1,22,0.00,CLR,,0.00,WeatherDisplay:10.37,2013-02-18 20:34:00,
2013-02-18 13:39:00,29.0,-4.2,30.01,West,279,17.3,17.3,23,0.00,CLR,,0.00,WeatherDisplay:10.37,2013-02-18 20:39:00,
2013-02-18 13:44:00,28.4,-4.8,30.01,NNW,328,13.8,13.8,23,0.00,CLR,,0.00,WeatherDisplay:10.37,2013-02-18 20:44:00,
2013-02-18 13:49:00,29.0,-4.2,30.03,NW,306,13.8,13.8,23,0.00,CLR,,0.00,WeatherDisplay:10.37,2013-02-18 20:49:00,
2013-02-18 13:54:00,29.0,-4.2,30.03,West,271,19.0,19.0,23,0.00,CLR,,0.00,WeatherDisplay:10.37,2013-02-18 20:54:00,
2013-02-18 13:59:00,29.1,-4.2,30.03,West,278,20.0,20.0,23,0.00,CLR,,0.00,WeatherDisplay:10.37,2013-02-18 20:59:00,
2013-02-18 14:04:00,28.5,-4.7,30.01,West,262,11.5,11.5,23,0.00,CLR,,0.00,WeatherDisplay:10.37,2013-02-18 21:04:00,
2013-02-18 14:09:00,29.0,-5.2,30.01,SW,218,11.5,11.5,22,0.00,CLR,,0.00,WeatherDisplay:10.37,2013-02-18 21:09:00,
2013-02-18 14:14:00,28.8,-5.3,30.01,NW,320,25.3,25.3,22,0.00,CLR,,0.00,WeatherDisplay:10.37,2013-02-18 21:14:00,
2013-02-18 14:19:00,28.8,-5.3,30.03,West,272,16.0,16.0,22,0.00,CLR,,0.00,WeatherDisplay:10.37,2013-02-18 21:19:00,
2013-02-18 14:24:00,28.7,-5.4,30.03,WSW,258,21.9,21.9,22,0.00,CLR,,0.00,WeatherDisplay:10.37,2013-02-18 21:24:00,
2013-02-18 14:29:00,29.4,-4.8,30.03,WSW,237,16.1,16.1,22,0.00,CLR,,0.00,WeatherDisplay:10.37,2013-02-18 21:29:00,
2013-02-18 14:34:00,29.0,-4.2,30.03,West,280,19.6,19.6,23,0.00,CLR,,0.00,WeatherDisplay:10.37,2013-02-18 21:34:00,
2013-02-18 14:39:00,28.4,-4.8,30.03,West,272,24.2,24.2,23,0.00,CLR,,0.00,WeatherDisplay:10.37,2013-02-18 21:39:00,
2013-02-18 14:44:00,28.2,-4.9,30.03,West,271,19.6,19.6,23,0.00,CLR,,0.00,WeatherDisplay:10.37,2013-02-18 21:44:00,
2013-02-18 14:49:00,28.4,-4.8,30.06,West,266,26.5,26.5,23,0.00,CLR,,0.00,WeatherDisplay:10.37,2013-02-18 21:49:00,
2013-02-18 14:54:00,28.2,-4.9,30.06,WNW,302,24.2,24.2,23,0.00,CLR,,0.00,WeatherDisplay:10.37,2013-02-18 21:54:00,
2013-02-18 14:59:00,27.9,-5.2,30.06,SW,231,19.6,19.6,23,0.00,CLR,,0.00,WeatherDisplay:10.37,2013-02-18 21:59:00,
2013-02-18 15:04:00,27.8,-5.3,30.06,WNW,292,18.4,18.4,23,0.00,CLR,,0.00,WeatherDisplay:10.37,2013-02-18 22:04:00,
2013-02-18 15:09:00,27.9,-5.2,30.06,NNW,337,25.3,25.3,23,0.00,CLR,,0.00,WeatherDisplay:10.37,2013-02-18 22:09:00,
2013-02-18 15:14:00,27.9,-5.2,30.06,WNW,282,19.6,19.6,23,0.00,CLR,,0.00,WeatherDisplay:10.37,2013-02-18 22:14:00,
2013-02-18 15:19:00,27.9,-5.2,30.07,WNW,285,19.6,19.6,23,0.00,CLR,,0.00,WeatherDisplay:10.37,2013-02-18 22:19:00,
2013-02-18 15:24:00,28.7,-5.4,30.07,ESE,122,10.4,10.4,22,0.00,CLR,,0.00,WeatherDisplay:10.37,2013-02-18 22:24:00,
2013-02-18 15:29:00,28.7,-4.5,30.07,West,280,11.5,11.5,23,0.00,CLR,,0.00,WeatherDisplay:10.37,2013-02-18 22:29:00,
2013-02-18 15:34:00,29.0,-5.2,30.06,WSW,244,10.4,10.4,22,0.00,CLR,,0.00,WeatherDisplay:10.37,2013-02-18 22:34:00,
2013-02-18 15:39:00,29.5,-4.8,30.06,West,269,11.5,11.5,22,0.00,CLR,,0.00,WeatherDisplay:10.37,2013-02-18 22:39:00,
2013-02-18 15:44:00,29.5,-4.8,30.06,SSW,213,11.5,11.5,22,0.00,CLR,,0.00,WeatherDisplay:10.37,2013-02-18 22:44:00,
2013-02-18 15:49:00,29.0,-4.2,30.07,NNW,327,10.4,10.4,23,0.00,CLR,,0.00,WeatherDisplay:10.37,2013-02-18 22:49:00,
2013-02-18 15:54:00,29.3,-4.9,30.07,SW,234,8.1,8.1,22,0.00,CLR,,0.00,WeatherDisplay:10.37,2013-02-18 22:54:00,
2013-02-18 15:59:00,29.1,-5.1,30.07,WSW,244,11.5,11.5,22,0.00,CLR,,0.00,WeatherDisplay:10.37,2013-02-18 22:59:00,
2013-02-18 16:04:00,29.1,-4.2,30.07,NNW,331,4.6,4.6,23,0.00,CLR,,0.00,WeatherDisplay:10.37,2013-02-18 23:04:00,
2013-02-18 16:09:00,29.0,-3.4,30.07,South,186,8.1,8.1,24,0.00,CLR,,0.00,WeatherDisplay:10.37,2013-02-18 23:09:00,
2013-02-18 16:14:00,29.0,-5.2,30.07,SW,217,11.5,11.5,22,0.00,CLR,,0.00,WeatherDisplay:10.37,2013-02-18 23:14:00,
2013-02-18 16:19:00,28.5,-4.7,30.07,WNW,295,6.9,6.9,23,0.00,CLR,,0.00,WeatherDisplay:10.37,2013-02-18 23:19:00,
2013-02-18 16:24:00,29.0,-4.2,30.07,West,259,7.0,7.0,23,0.00,CLR,,0.00,WeatherDisplay:10.37,2013-02-18 23:24:00,
2013-02-18 16:29:00,28.8,-4.4,30.07,WSW,237,10.4,10.4,23,0.00,CLR,,0.00,WeatherDisplay:10.37,2013-02-18 23:29:00,
2013-02-18 16:34:00,28.7,-5.4,30.07,West,280,8.1,8.1,22,0.00,CLR,,0.00,WeatherDisplay:10.37,2013-02-18 23:34:00,
2013-02-18 16:39:00,28.5,-4.7,30.07,WNW,283,12.7,12.7,23,0.00,CLR,,0.00,WeatherDisplay:10.37,2013-02-18 23:39:00,
2013-02-18 16:44:00,28.2,-4.0,30.07,WSW,240,12.7,12.7,24,0.00,CLR,,0.00,WeatherDisplay:10.37,2013-02-18 23:44:00,
2013-02-18 16:49:00,27.8,-4.4,30.09,SW,235,11.5,11.5,24,0.00,CLR,,0.00,WeatherDisplay:10.37,2013-02-18 23:49:00,
2013-02-18 16:54:00,27.2,-4.9,30.09,WNW,282,6.9,6.9,24,0.00,CLR,,0.00,WeatherDisplay:10.37,2013-02-18 23:54:00,
2013-02-18 16:59:00,26.7,-4.5,30.09,WSW,238,11.5,11.5,25,0.00,CLR,,0.00,WeatherDisplay:10.37,2013-02-18 23:59:00,
2013-02-18 17:04:00,26.1,-5.0,30.10,SW,223,16.1,16.1,25,0.00,CLR,,0.00,WeatherDisplay:10.37,2013-02-19 00:04:00,
2013-02-18 17:09:00,25.8,-4.4,30.10,SW,220,16.1,16.1,26,0.00,CLR,,0.00,WeatherDisplay:10.37,2013-02-19 00:09:00,
2013-02-18 17:14:00,25.6,-4.6,30.10,SW,230,16.1,16.1,26,0.00,CLR,,0.00,WeatherDisplay:10.37,2013-02-19 00:14:00,
2013-02-18 17:19:00,25.4,-4.8,30.12,SSW,210,13.8,13.8,26,0.00,CLR,,0.00,WeatherDisplay:10.37,2013-02-19 00:19:00,
2013-02-18 17:24:00,25.1,-4.3,30.12,SW,234,12.7,12.7,27,0.00,CLR,,0.00,WeatherDisplay:10.37,2013-02-19 00:24:00,
2013-02-18 17:29:00,25.0,-4.3,30.12,SSW,208,17.3,17.3,27,0.00,CLR,,0.00,WeatherDisplay:10.37,2013-02-19 00:29:00,
2013-02-18 17:34:00,24.8,-4.5,30.14,SSW,193,18.4,18.4,27,0.00,CLR,,0.00,WeatherDisplay:10.37,2013-02-19 00:34:00,
2013-02-18 17:39:00,24.7,-4.6,30.14,SW,231,17.0,17.0,27,0.00,CLR,,0.00,WeatherDisplay:10.37,2013-02-19 00:39:00,
2013-02-18 17:44:00,24.4,-4.9,30.14,WSW,241,13.8,13.8,27,0.00,CLR,,0.00,WeatherDisplay:10.37,2013-02-19 00:44:00,
2013-02-18 17:49:00,24.2,-5.0,30.14,SW,216,17.3,17.3,27,0.00,CLR,,0.00,WeatherDisplay:10.37,2013-02-19 00:49:00,
2013-02-18 17:54:00,24.1,-5.1,30.14,SW,227,18.4,18.4,27,0.00,CLR,,0.00,WeatherDisplay:10.37,2013-02-19 00:54:00,
2013-02-18 17:59:00,24.1,-5.1,30.14,SW,231,19.6,19.6,27,0.00,CLR,,0.00,WeatherDisplay:10.37,2013-02-19 00:59:00,
2013-02-18 18:04:00,23.9,-5.3,30.15,West,261,17.3,17.3,27,0.00,CLR,,0.00,WeatherDisplay:10.37,2013-02-19 01:04:00,
2013-02-18 18:09:00,24.1,-6.7,30.15,WSW,242,19.6,19.6,25,0.00,CLR,,0.00,WeatherDisplay:10.37,2013-02-19 01:09:00,
2013-02-18 18:15:00,23.9,-6.9,30.15,SW,231,11.5,12.7,25,0.00,CLR,,0.00,WeatherDisplay:10.37,2013-02-19 01:15:00,
2013-02-18 18:20:00,23.8,-7.0,30.16,SW,235,11.5,11.5,25,0.00,CLR,,0.00,WeatherDisplay:10.37,2013-02-19 01:20:00,
2013-02-18 18:25:00,23.9,-6.9,30.16,WSW,241,19.6,19.6,25,0.00,CLR,,0.00,WeatherDisplay:10.37,2013-02-19 01:25:00,
2013-02-18 18:30:00,23.8,-7.0,30.16,WSW,252,6.0,6.0,25,0.00,CLR,,0.00,WeatherDisplay:10.37,2013-02-19 01:30:00,
2013-02-18 18:35:00,23.6,-8.0,30.16,West,265,11.5,11.5,24,0.00,CLR,,0.00,WeatherDisplay:10.37,2013-02-19 01:35:00,
2013-02-18 18:40:00,23.6,-8.0,30.16,WSW,258,11.5,11.5,24,0.00,CLR,,0.00,WeatherDisplay:10.37,2013-02-19 01:40:00,
2013-02-18 18:45:00,23.6,-8.0,30.16,West,262,16.1,16.1,24,0.00,CLR,,0.00,WeatherDisplay:10.37,2013-02-19 01:45:00,
2013-02-18 18:50:00,23.6,-8.9,30.16,West,272,12.7,12.7,23,0.00,CLR,,0.00,WeatherDisplay:10.37,2013-02-19 01:50:00,
2013-02-18 18:55:00,23.6,-8.9,30.16,WSW,254,11.5,11.5,23,0.00,CLR,,0.00,WeatherDisplay:10.37,2013-02-19 01:55:00,
2013-02-18 19:00:00,23.5,-8.9,30.16,SW,232,13.8,13.8,23,0.00,CLR,,0.00,WeatherDisplay:10.37,2013-02-19 02:00:00,
2013-02-18 19:05:00,23.6,-8.9,30.16,West,261,12.7,12.7,23,0.00,CLR,,0.00,WeatherDisplay:10.37,2013-02-19 02:05:00,
2013-02-18 19:10:00,23.9,-9.5,30.16,West,264,12.0,12.0,22,0.00,CLR,,0.00,WeatherDisplay:10.37,2013-02-19 02:10:00,
2013-02-18 19:15:00,23.8,-9.6,30.12,West,276,10.4,10.4,22,0.00,CLR,,0.00,WeatherDisplay:10.37,2013-02-19 02:15:00,
2013-02-18 19:21:00,23.8,-9.6,30.12,WSW,245,11.5,11.5,22,0.00,CLR,,0.00,WeatherDisplay:10.37,2013-02-19 02:21:00,
2013-02-18 19:26:00,23.6,-8.9,30.12,West,261,11.5,11.5,23,0.00,CLR,,0.00,WeatherDisplay:10.37,2013-02-19 02:26:00,
2013-02-18 19:31:00,23.6,-8.9,30.12,WSW,245,11.5,11.5,23,0.00,CLR,,0.00,WeatherDisplay:10.37,2013-02-19 02:31:00,
2013-02-18 19:36:00,23.6,-8.9,30.12,WNW,282,12.7,12.7,23,0.00,CLR,,0.00,WeatherDisplay:10.37,2013-02-19 02:36:00,
2013-02-18 19:41:00,23.9,-9.5,30.12,West,272,13.8,13.8,22,0.00,CLR,,0.00,WeatherDisplay:10.37,2013-02-19 02:41:00,
2013-02-18 19:46:00,24.1,-9.3,30.12,West,275,10.4,10.4,22,0.00,CLR,,0.00,WeatherDisplay:10.37,2013-02-19 02:46:00,
2013-02-18 19:51:00,23.9,-9.5,30.12,SW,216,8.1,8.1,22,0.00,CLR,,0.00,WeatherDisplay:10.37,2013-02-19 02:51:00,
2013-02-18 19:56:00,23.8,-9.6,30.12,WSW,242,8.1,8.1,22,0.00,CLR,,0.00,WeatherDisplay:10.37,2013-02-19 02:56:00,
2013-02-18 20:02:00,23.9,-10.5,30.12,SW,232,11.5,11.5,21,0.00,CLR,,0.00,WeatherDisplay:10.37,2013-02-19 03:02:00,
2013-02-18 20:07:00,24.2,-11.2,30.12,WSW,251,12.7,12.7,20,0.00,CLR,,0.00,WeatherDisplay:10.37,2013-02-19 03:07:00,
2013-02-18 20:12:00,24.2,-10.2,30.12,WSW,256,16.0,16.0,21,0.00,CLR,,0.00,WeatherDisplay:10.37,2013-02-19 03:12:00,
2013-02-18 20:17:00,24.5,-10.9,30.10,SW,221,10.4,10.4,20,0.00,CLR,,0.00,WeatherDisplay:10.37,2013-02-19 03:17:00,
2013-02-18 20:22:00,24.5,-9.0,30.10,SW,216,17.3,17.3,22,0.00,CLR,,0.00,WeatherDisplay:10.37,2013-02-19 03:22:00,
2013-02-18 20:27:00,24.7,-7.9,30.10,WSW,237,11.5,11.5,23,0.00,CLR,,0.00,WeatherDisplay:10.37,2013-02-19 03:27:00,
2013-02-18 20:32:00,25.3,-9.3,30.09,West,259,16.1,16.1,21,0.00,CLR,,0.00,WeatherDisplay:10.37,2013-02-19 03:32:00,
2013-02-18 20:37:00,25.1,-8.5,30.09,SSW,200,13.8,13.8,22,0.00,CLR,,0.00,WeatherDisplay:10.37,2013-02-19 03:37:00,
2013-02-18 20:42:00,25.1,-8.5,30.09,SW,221,29.9,29.9,22,0.00,CLR,,0.00,WeatherDisplay:10.37,2013-02-19 03:42:00,
2013-02-18 20:47:00,24.8,-7.0,30.09,WNW,282,5.8,6.8,24,0.00,CLR,,0.00,WeatherDisplay:10.37,2013-02-19 03:47:00,
2013-02-18 20:52:00,25.0,-8.6,30.09,SW,214,11.5,11.5,22,0.00,CLR,,0.00,WeatherDisplay:10.37,2013-02-19 03:52:00,
2013-02-18 20:58:00,24.8,-8.7,30.09,SSW,206,4.6,4.6,22,0.00,CLR,,0.00,WeatherDisplay:10.37,2013-02-19 03:58:00,
2013-02-18 21:03:00,23.9,-9.5,30.11,NNW,334,3.5,3.5,22,0.00,CLR,,0.00,WeatherDisplay:10.37,2013-02-19 04:03:00,
2013-02-18 21:08:00,22.2,-10.1,30.11,NNE,18,3.5,3.5,23,0.00,CLR,,0.00,WeatherDisplay:10.37,2013-02-19 04:08:00,
2013-02-18 21:13:00,21.1,-8.5,30.11,NNE,31,6.0,6.0,26,0.00,CLR,,0.00,WeatherDisplay:10.37,2013-02-19 04:13:00,
2013-02-18 21:18:00,20.0,-9.5,30.13,NE,42,5.0,5.0,26,0.00,CLR,,0.00,WeatherDisplay:10.37,2013-02-19 04:18:00,
2013-02-18 21:23:00,19.4,-9.2,30.13,North,8,8.0,8.0,27,0.00,CLR,,0.00,WeatherDisplay:10.37,2013-02-19 04:23:00,
2013-02-18 21:28:00,18.6,-9.9,30.13,SE,128,3.0,3.0,27,0.00,CLR,,0.00,WeatherDisplay:10.37,2013-02-19 04:28:00,
2013-02-18 21:33:00,18.1,-9.6,30.16,North,2,5.8,5.8,28,0.00,CLR,,0.00,WeatherDisplay:10.37,2013-02-19 04:33:00,
2013-02-18 21:38:00,18.0,-9.7,30.16,North,5,5.8,5.8,28,0.00,CLR,,0.00,WeatherDisplay:10.37,2013-02-19 04:38:00,
2013-02-18 21:43:00,17.8,-10.6,30.16,NE,39,6.0,6.0,27,0.00,CLR,,0.00,WeatherDisplay:10.37,2013-02-19 04:43:00,
2013-02-18 21:48:00,17.5,-10.1,30.16,NNE,16,6.9,6.9,28,0.00,CLR,,0.00,WeatherDisplay:10.37,2013-02-19 04:48:00,
2013-02-18 21:53:00,16.7,-10.1,30.16,NNE,15,8.1,8.1,29,0.00,CLR,,0.00,WeatherDisplay:10.37,2013-02-19 04:53:00,
2013-02-18 21:58:00,15.9,-10.1,30.16,NNE,32,8.1,8.1,30,0.00,CLR,,0.00,WeatherDisplay:10.37,2013-02-19 04:58:00,
2013-02-18 22:00:00,15.7,-9.6,30.16,NE,40,8.1,8.1,31,0.00,CLR,,0.00,WeatherDisplay:10.37,2013-02-19 05:00:00,
2013-02-18 22:01:00,15.6,-9.7,30.18,NNE,28,10.4,10.4,31,0.00,CLR,,0.00,WeatherDisplay:10.37,2013-02-19 05:01:00,
2013-02-18 22:06:00,15.4,-9.9,30.18,NE,53,10.4,10.4,31,0.00,CLR,,0.00,WeatherDisplay:10.37,2013-02-19 05:06:00,
2013-02-18 22:11:00,15.6,-7.8,30.18,NNE,21,11.5,11.5,34,0.00,CLR,,0.00,WeatherDisplay:10.37,2013-02-19 05:11:00,
2013-02-18 22:16:00,15.2,-7.6,30.20,NNE,28,8.1,8.1,35,0.00,CLR,,0.00,WeatherDisplay:10.37,2013-02-19 05:16:00,
2013-02-18 22:21:00,15.1,-7.1,30.20,ENE,60,7.0,7.0,36,0.00,CLR,,0.00,WeatherDisplay:10.37,2013-02-19 05:21:00,
2013-02-18 22:26:00,15.1,-6.5,30.20,NE,35,6.9,6.9,37,0.00,CLR,,0.00,WeatherDisplay:10.37,2013-02-19 05:26:00,
2013-02-18 22:31:00,14.4,-6.6,30.20,ENE,66,7.0,7.0,38,0.00,CLR,,0.00,WeatherDisplay:10.37,2013-02-19 05:31:00,
2013-02-18 22:36:00,14.1,-5.3,30.20,ENE,62,10.4,10.4,41,0.00,CLR,,0.00,WeatherDisplay:10.37,2013-02-19 05:36:00,
2013-02-18 22:41:00,14.3,-5.7,30.20,NNE,21,10.4,10.4,40,0.00,CLR,,0.00,WeatherDisplay:10.37,2013-02-19 05:41:00,
2013-02-18 22:46:00,14.6,-5.4,30.20,NNE,14,6.9,6.9,40,0.00,CLR,,0.00,WeatherDisplay:10.37,2013-02-19 05:46:00,
2013-02-18 22:51:00,14.4,-6.1,30.20,NE,35,8.1,8.1,39,0.00,CLR,,0.00,WeatherDisplay:10.37,2013-02-19 05:51:00,
2013-02-18 22:56:00,14.1,-5.8,30.20,NNW,348,4.6,4.6,40,0.00,CLR,,0.00,WeatherDisplay:10.37,2013-02-19 05:56:00,
2013-02-18 23:01:00,14.3,-5.1,30.20,NE,40,10.4,10.4,41,0.00,CLR,,0.00,WeatherDisplay:10.37,2013-02-19 06:01:00,
2013-02-18 23:06:00,14.3,-5.7,30.20,NW,310,5.8,5.8,40,0.00,CLR,,0.00,WeatherDisplay:10.37,2013-02-19 06:06:00,
2013-02-18 23:11:00,14.3,-5.7,30.20,NNE,21,5.8,5.8,40,0.00,CLR,,0.00,WeatherDisplay:10.37,2013-02-19 06:11:00,
2013-02-18 23:16:00,14.1,-5.8,30.18,NE,52,5.8,5.8,40,0.00,CLR,,0.00,WeatherDisplay:10.37,2013-02-19 06:16:00,
2013-02-18 23:21:00,13.5,-6.4,30.18,NE,40,10.4,10.4,40,0.00,CLR,,0.00,WeatherDisplay:10.37,2013-02-19 06:21:00,
2013-02-18 23:26:00,13.3,-6.6,30.18,NE,42,6.9,6.9,40,0.00,CLR,,0.00,WeatherDisplay:10.37,2013-02-19 06:26:00,
2013-02-18 23:31:00,13.3,-6.6,30.19,NNE,19,8.1,8.1,40,0.00,CLR,,0.00,WeatherDisplay:10.37,2013-02-19 06:31:00,
2013-02-18 23:36:00,13.3,-7.1,30.19,North,1,10.0,10.0,39,0.00,CLR,,0.00,WeatherDisplay:10.37,2013-02-19 06:36:00,
2013-02-18 23:41:00,13.1,-7.3,30.19,NE,56,5.0,5.0,39,0.00,CLR,,0.00,WeatherDisplay:10.37,2013-02-19 06:41:00,
2013-02-18 23:46:00,12.8,-6.5,30.19,NE,38,8.1,8.1,41,0.00,CLR,,0.00,WeatherDisplay:10.37,2013-02-19 06:46:00,
2013-02-18 23:51:00,12.4,-6.4,30.19,North,7,6.0,6.0,42,0.00,CLR,,0.00,WeatherDisplay:10.37,2013-02-19 06:51:00,
2013-02-18 23:56:00,12.3,-6.5,30.19,NNE,14,7.0,7.0,42,0.00,CLR,,0.00,WeatherDisplay:10.37,2013-02-19 06:56:00,